When you browse on this site, cookies collect data to enhance your experience and personalize the content and advertising you see.
Visit our Privacy Policy to learn more. By continuing to use the site, you agree to this use of cookies and data.
  • In Czech Republic
  • List of Countries
  • For 7 days
  • Water Temperature
  • Satellite Maps
  • Weather Map
  • Weather Widgets
  • user-avatar
    Login

    Hourly Weather Sarafovo

    Today, 22 January, Tuesday

    Time Temperature Precipitation Wind Pressure Humidity
    00:00 +1°C° 0 mm 3 mps 763 mmHg 85%
    01:00 +1°C° 0 mm 3 mps 763 mmHg 86%
    02:00 0°C° 0 mm 3 mps 763 mmHg 86%
    03:00 +1°C° 0 mm 3 mps 763 mmHg 86%
    04:00 +1°C° 0 mm 3 mps 763 mmHg 86%
    05:00 +1°C° 0 mm 3 mps 763 mmHg 87%
    06:00 +1°C° 0 mm 3 mps 762 mmHg 87%
    07:00 +1°C° 0 mm 3 mps 762 mmHg 87%
    08:00 +2°C° 0 mm 3 mps 762 mmHg 88%
    09:00 +1°C° 0 mm 4 mps 762 mmHg 85%
    10:00 +3°C° 0 mm 4 mps 761 mmHg 83%
    11:00 +4°C° 0 mm 4 mps 761 mmHg 80%
    12:00 +4°C° 0 mm 4 mps 761 mmHg 81%
    13:00 +4°C° 0 mm 4 mps 760 mmHg 82%
    14:00 +5°C° 0 mm 4 mps 759 mmHg 83%
    15:00 +5°C° 0 mm 4 mps 759 mmHg 85%
    16:00 +5°C° 0 mm 4 mps 758 mmHg 87%
    17:00 +5°C° 0 mm 4 mps 758 mmHg 89%
    18:00 +5°C° 0 mm 4 mps 757 mmHg 90%
    19:00 +5°C° 0 mm 4 mps 757 mmHg 91%
    20:00 +5°C° 0 mm 4 mps 756 mmHg 92%
    21:00 +5°C° 0 mm 4 mps 756 mmHg 93%
    22:00 +5°C° 0 mm 5 mps 755 mmHg 93%
    23:00 +3°C° 0 mm 5 mps 755 mmHg 94%

    Tomorrow, 23 January, Wednesday

    Time Temperature Precipitation Wind Pressure Humidity
    00:00 +5°C° 0 mm 4 mps 754 mmHg 94%
    01:00 +5°C° 0 mm 4 mps 754 mmHg 94%
    02:00 +5°C° 0 mm 4 mps 753 mmHg 94%
    03:00 +5°C° 2 mm 4 mps 752 mmHg 94%
    04:00 +6°C° 2 mm 4 mps 751 mmHg 94%
    05:00 +7°C° 2 mm 3 mps 751 mmHg 93%
    06:00 +7°C° 0.1 mm 4 mps 750 mmHg 92%
    07:00 +7°C° 0.1 mm 4 mps 750 mmHg 90%
    08:00 +8°C° 0.1 mm 5 mps 750 mmHg 89%
    09:00 +9°C° 0 mm 5 mps 750 mmHg 85%
    10:00 +10°C° 0 mm 6 mps 750 mmHg 81%
    11:00 +11°C° 0 mm 7 mps 750 mmHg 77%
    12:00 +12°C° 0 mm 7 mps 750 mmHg 73%
    13:00 +14°C° 0 mm 6 mps 750 mmHg 69%
    14:00 +14°C° 0 mm 6 mps 749 mmHg 65%
    15:00 +13°C° 0.3 mm 5 mps 749 mmHg 71%
    16:00 +12°C° 0.3 mm 5 mps 749 mmHg 76%
    17:00 +11°C° 0.3 mm 4 mps 749 mmHg 82%
    18:00 +10°C° 0.1 mm 5 mps 749 mmHg 83%
    19:00 +10°C° 0.1 mm 5 mps 749 mmHg 85%
    20:00 +9°C° 0.1 mm 5 mps 749 mmHg 86%
    21:00 +9°C° 0.1 mm 5 mps 749 mmHg 87%
    22:00 +10°C° 0.1 mm 4 mps 749 mmHg 88%
    23:00 +8°C° 0.1 mm 4 mps 749 mmHg 89%

    Day after tomorrow, 24 January, Thursday

    Time Temperature Precipitation Wind Pressure Humidity
    00:00 +8°C° 0.5 mm 4 mps 749 mmHg 90%
    01:00 +8°C° 0.5 mm 4 mps 749 mmHg 91%
    02:00 +8°C° 0.5 mm 4 mps 748 mmHg 92%
    03:00 +8°C° 0.2 mm 4 mps 748 mmHg 92%
    04:00 +8°C° 0.2 mm 5 mps 747 mmHg 92%
    05:00 +8°C° 0.2 mm 5 mps 747 mmHg 92%
    06:00 +8°C° 0.1 mm 5 mps 746 mmHg 91%
    07:00 +8°C° 0.1 mm 5 mps 746 mmHg 90%
    08:00 +8°C° 0.1 mm 5 mps 746 mmHg 90%
    09:00 +8°C° 0.7 mm 5 mps 746 mmHg 89%
    10:00 +8°C° 0.7 mm 5 mps 746 mmHg 89%
    11:00 +8°C° 0.7 mm 4 mps 746 mmHg 88%
    12:00 +8°C° 1.7 mm 4 mps 746 mmHg 89%
    13:00 +9°C° 1.7 mm 3 mps 745 mmHg 89%
    14:00 +9°C° 1.7 mm 3 mps 745 mmHg 89%
    15:00 +9°C° 0 mm 3 mps 745 mmHg 88%
    16:00 +9°C° 0 mm 3 mps 745 mmHg 87%
    17:00 +8°C° 0 mm 4 mps 744 mmHg 86%
    18:00 +9°C° 0.4 mm 3 mps 745 mmHg 88%
    19:00 +9°C° 0.4 mm 3 mps 745 mmHg 89%
    20:00 +9°C° 0.4 mm 2 mps 745 mmHg 90%
    21:00 +9°C° 0.4 mm 2 mps 746 mmHg 91%
    22:00 +9°C° 0.4 mm 3 mps 746 mmHg 92%
    23:00 +9°C° 0.4 mm 3 mps 746 mmHg 92%

    25 January, Friday

    Time Temperature Precipitation Wind Pressure Humidity
    00:00 +9°C° 0.2 mm 3 mps 746 mmHg 91%
    01:00 +9°C° 0.2 mm 3 mps 747 mmHg 91%
    02:00 +9°C° 0.2 mm 3 mps 747 mmHg 90%
    03:00 +9°C° 0.2 mm 3 mps 747 mmHg 88%
    04:00 +8°C° 0.2 mm 4 mps 747 mmHg 87%
    05:00 +10°C° 0.2 mm 4 mps 747 mmHg 85%
    06:00 +8°C° 0 mm 4 mps 748 mmHg 87%
    07:00 +8°C° 0 mm 4 mps 748 mmHg 88%
    08:00 +8°C° 0 mm 4 mps 749 mmHg 90%
    09:00 +10°C° 0 mm 4 mps 749 mmHg 86%
    10:00 +10°C° 0 mm 5 mps 749 mmHg 82%
    11:00 +12°C° 0 mm 5 mps 749 mmHg 78%
    12:00 +12°C° 0.2 mm 5 mps 749 mmHg 76%
    13:00 +13°C° 0.2 mm 5 mps 749 mmHg 74%
    14:00 +13°C° 0.2 mm 5 mps 749 mmHg 72%
    15:00 +12°C° 0.5 mm 5 mps 749 mmHg 77%
    16:00 +11°C° 0.5 mm 4 mps 749 mmHg 82%
    17:00 +10°C° 0.5 mm 4 mps 749 mmHg 87%
    18:00 +9°C° 0.9 mm 5 mps 749 mmHg 89%
    19:00 +8°C° 0.9 mm 5 mps 749 mmHg 91%
    20:00 +8°C° 0.9 mm 6 mps 748 mmHg 93%
    21:00 +8°C° 1.2 mm 6 mps 748 mmHg 93%
    22:00 +8°C° 1.2 mm 6 mps 748 mmHg 93%
    23:00 +8°C° 1.2 mm 7 mps 747 mmHg 93%

    26 January, Saturday

    Time Temperature Precipitation Wind Pressure Humidity
    00:00 +8°C° 0.4 mm 6 mps 747 mmHg 92%
    01:00 +8°C° 0.4 mm 5 mps 747 mmHg 92%
    02:00 +8°C° 0.4 mm 4 mps 747 mmHg 91%
    03:00 +8°C° 0 mm 3 mps 747 mmHg 91%
    04:00 +8°C° 0 mm 2 mps 746 mmHg 92%
    05:00 +7°C° 0 mm 2 mps 746 mmHg 92%
    06:00 +8°C° 0 mm 1 mps 746 mmHg 91%
    07:00 +8°C° 0 mm 1 mps 747 mmHg 91%
    08:00 +8°C° 0 mm 1 mps 747 mmHg 90%
    09:00 +9°C° 0 mm 1 mps 747 mmHg 86%
    10:00 +10°C° 0 mm 2 mps 747 mmHg 82%
    11:00 +12°C° 0 mm 2 mps 747 mmHg 78%
    12:00 +12°C° 0.1 mm 2 mps 747 mmHg 78%
    13:00 +12°C° 0.1 mm 2 mps 746 mmHg 78%
    14:00 +11°C° 0.1 mm 3 mps 746 mmHg 77%
    15:00 +11°C° 0.4 mm 3 mps 746 mmHg 82%
    16:00 +10°C° 0.4 mm 2 mps 746 mmHg 86%
    17:00 +9°C° 0.4 mm 2 mps 746 mmHg 91%
    18:00 +9°C° 0.3 mm 2 mps 746 mmHg 92%
    19:00 +9°C° 0.3 mm 2 mps 747 mmHg 92%
    20:00 +10°C° 0.3 mm 1 mps 747 mmHg 93%
    21:00 +8°C° 0.1 mm 2 mps 747 mmHg 93%
    22:00 +8°C° 0.1 mm 2 mps 747 mmHg 94%
    23:00 +8°C° 0.1 mm 2 mps 747 mmHg 94%

    27 January, Sunday

    Time Temperature Precipitation Wind Pressure Humidity
    00:00 +7°C° 0.1 mm 3 mps 747 mmHg 94%
    01:00 +7°C° 0.1 mm 3 mps 747 mmHg 95%
    02:00 +6°C° 0.1 mm 4 mps 747 mmHg 96%
    03:00 +6°C° 0 mm 4 mps 747 mmHg 96%
    04:00 +6°C° 0 mm 4 mps 747 mmHg 95%
    05:00 +6°C° 0 mm 4 mps 747 mmHg 95%
    06:00 +6°C° 0 mm 4 mps 747 mmHg 95%
    07:00 +6°C° 0 mm 4 mps 747 mmHg 94%
    08:00 +6°C° 0 mm 4 mps 748 mmHg 94%
    09:00 +6°C° 0.1 mm 4 mps 748 mmHg 93%
    10:00 +6°C° 0.1 mm 4 mps 748 mmHg 92%
    11:00 +6°C° 0.1 mm 4 mps 749 mmHg 91%
    12:00 +6°C° 0.1 mm 4 mps 749 mmHg 91%
    13:00 +6°C° 0.1 mm 4 mps 749 mmHg 91%
    14:00 +6°C° 0.1 mm 4 mps 749 mmHg 91%
    15:00 +6°C° 0.3 mm 4 mps 749 mmHg 91%
    16:00 +6°C° 0.3 mm 4 mps 750 mmHg 91%
    17:00 +5°C° 0.3 mm 3 mps 750 mmHg 92%
    18:00 +5°C° 0.2 mm 3 mps 751 mmHg 90%
    19:00 +5°C° 0.2 mm 3 mps 751 mmHg 89%
    20:00 +4°C° 0.2 mm 3 mps 752 mmHg 88%
    21:00 +4°C° 0.1 mm 3 mps 752 mmHg 87%
    22:00 +5°C° 0.1 mm 2 mps 753 mmHg 86%
    23:00 +5°C° 0.1 mm 2 mps 753 mmHg 85%
    Show more